Location: ??????
(30.5519°N, 47.7720°E)
Time: 17:04:58
(UTC+00:00)

MOS 1 Rocket - Pass Details

Date: 24 January 2021
Orbit: 614 x 830 km, 97.4° (Epoch: 02 March)

Event Time Altitude Azimuth Distance (km) Brightness Sun altitude
Rises 15:25:15 0° 1° (N) 2,885 6.3 -14.6°
Reaches altitude 10° 15:27:31 10° 354° (N) 1,976 5.6 -15.0°
Maximum altitude 15:31:30 40° 285° (WNW) 915 4.4 -15.9°
Drops below altitude 10° 15:35:33 10° 216° (SW) 2,004 6.4 -16.7°
Sets 15:37:52 0° 209° (SSW) 2,931 7.1 -17.2°
